Regional Weather Roundup
Issued by NWS

Home | Current Version | Previous Version | Text Only | Print | Product List | Glossary On
Versions: 1 2 3 4 5 6 7 8 9 10 11 12 13 14 15 16 17 18 19 20 21 22 23 24 25 26 27 28 29 30 31 32 33 34 35 36 37 38 39 40 41 42 43 44 45 46 47 48 49 50
000
ASUS43 KLOT 211024
RWRIL

ILLINOIS REGIONAL WEATHER ROUNDUP
NATIONAL WEATHER SERVICE CHICAGO/ROMEOVILLE IL
500 AM CDT TUE APR 21 2015

NOTE: "FAIR" INDICATES FEW OR NO CLOUDS BELOW 12,000 FEET WITH NO
SIGNIFICANT WEATHER AND/OR OBSTRUCTIONS TO VISIBILITY.

* THESE STATIONS ARE NOT UNDER NWS QUALITY CONTROL. THEY ALSO MAY NOT
  REPORT WEATHER SUCH AS PRECIPITATION OR FOG.

ILZ001-002-007-009-015-016-024-211100-
NORTHWEST ILLINOIS

CITY           SKY/WX    TMP DP  RH WIND       PRES   REMARKS
MOLINE         CLEAR     38  30  73 W10       29.68R WCI  31
STERLING*      CLEAR     39  28  65 W18       29.64S WCI  30
SAVANNA*       CLEAR     39  31  71 W12G22    29.63S WCI  32
$$

ILZ003-004-008-010-011-017-018-211100-
NORTH CENTRAL ILLINOIS

CITY           SKY/WX    TMP DP  RH WIND       PRES   REMARKS
ROCKFORD       MOCLDY    39  29  67 W15       29.61R WCI  31
FREEPORT*      CLOUDY    38  30  73 W14G20    29.61S WCI  29
ROCHELLE*      CLEAR     34  31  89 SW10      29.62S WCI  26
DE KALB*       CLEAR     36  29  78 W15G24    29.61S WCI  26
PERU*          CLEAR     41  30  65 W13       29.66S
$$

ILZ005-006-012>014-019>023-211100-
NORTHEAST ILLINOIS

CITY           SKY/WX    TMP DP  RH WIND       PRES   REMARKS
CHICAGO-OHARE  CLEAR     39  30  70 W14G24    29.58F WCI  31
CHICAGO-MIDWAY CLEAR     42  31  64 SW13      29.61S
AURORA         CLEAR     38  29  70 SW13      29.62S WCI  30
LANSING*       CLEAR     40  30  68 W10       29.63S
JOLIET*        CLEAR     41  32  70 SW10G16   29.64S
WAUKEGAN       CLEAR     38  30  73 SW8       29.54F WCI  32
DUPAGE AIRPORT CLEAR     38  30  73 SW15      29.60R WCI  29
KANKAKEE*      CLEAR     37  32  83 SW12      29.68R WCI  29
WHEELING       CLEAR     40  29  64 W14G21    29.58F
MORRIS*        CLEAR     38  31  76 W10       29.61F WCI  31
ROMEOVILLE*    CLEAR     39  31  73 W14       29.63S WCI  30
NORTHERLY ISL    N/A     42  30  62 SW8         N/A
$$

LMZ740>746-211100-
SOUTHERN LAKE MICHIGAN

STATION/POSITION SKY/WX   TEMP    WIND        PRES    VSBY  WAVE
                          AIR SEA DIR/SP/G                  HT/PER
                          (F)     (DEG/KT/KT) (MB)    (MI)  (FT/S)
HARRISON CRIB              42     240/ 23/ 33   N/A
BURNHAM HARBOR             42     200/  8/ 15   N/A
CALUMET HARBOR             43     230/  8/ 17   N/A
BURNS HARBOR               44     230/ 12/ 19 1003.4F
MICHIGAN CITY              43     200/ 20/ 24   N/A
MICHIGAN CITY 6N           43 45  250/ 17/ 23   N/A           4/ 4
$$

ILZ025>027-034>036-040-047-049-050-058-095>099-211100-
WEST-CENTRAL ILLINOIS

CITY           SKY/WX    TMP DP  RH WIND       PRES   REMARKS
QUINCY         MOCLDY    43  28  55 W12       29.76S
GALESBURG*     CLEAR     37  28  69 SW7       29.71S WCI  32
MACOMB*        CLEAR     37  29  74 W9        29.75S WCI  30
JACKSONVILLE*  CLEAR     42  32  67 SW9       29.76F
PITTSFIELD*    CLEAR     45  31  57 SW9       29.78S
$$

ILZ028>032-037-038-041>044-048-051>054-059>061-211100-
CENTRAL ILLINOIS

CITY           SKY/WX    TMP DP  RH WIND       PRES   REMARKS
PONTIAC        CLEAR     40  33  78 SW12      29.70R
BLOOMINGTON    CLEAR     39  32  76 W9        29.72S WCI  33
DECATUR        CLEAR     42  32  67 SW10      29.75S
PEORIA         CLEAR     40  29  64 SW6       29.72R
LACON*         CLEAR     37  30  76 SW5       29.69S WCI  34
LINCOLN*       CLEAR     42  32  67 W5        29.73S
SPRINGFIELD    CLEAR     41  31  67 W10       29.76S
TAYLORVILLE    CLEAR     43  32  65 SW12      29.77S
$$

ILZ033-039-045-046-055>057-062-063-211100-
EAST-CENTRAL ILLINOIS

CITY           SKY/WX    TMP DP  RH WIND       PRES   REMARKS
CHAMPAIGN      CLEAR     40  32  73 SW16      29.73S
DANVILLE*      CLEAR     40  32  72 W10       29.70R
RANTOUL*       CLEAR     40  33  77 SW9       29.72S
MATTOON        CLEAR     44  31  60 SW9       29.76S
PARIS*         CLEAR     41  35  79 SW12      29.76S
$$

ILZ079-100>102-211100-
SOUTHWEST ILLINOIS

CITY           SKY/WX    TMP DP  RH WIND       PRES   REMARKS
ALTON          MOCLDY    43  28  54 SW6       29.81F
BELLEVILLE     CLEAR     41  32  70 SW6       29.82F
CAHOKIA*       CLEAR     46  30  53 SW7       29.83S
SPARTA*        CLEAR     45  31  57 SW6       29.86F
$$

ILZ064>066-069>071-074>076-080>082-084>086-088>090-092>094-211100-
SOUTH-CENTRAL ILLINOIS

CITY           SKY/WX    TMP DP  RH WIND       PRES   REMARKS
CARBONDALE     CLEAR     44  31  60 SW8       29.87F
CAIRO*         FAIR      48  36  62 W5        29.91S
EFFINGHAM*     CLEAR     44  31  60 S10       29.81S
MARION         CLEAR     46  34  61 SW5       29.88F
MT. VERNON     CLEAR     43  30  61 SW10      29.85S
CENTRALIA*     CLEAR     43  32  64 SW9       29.83S
SALEM*         CLEAR     47  32  55 SW10      29.83S
METROPOLIS*    CLEAR     47  38  72 SW7       29.90S
$$

ILZ067-068-072-073-078-083-087-091-211100-
SOUTHEAST ILLINOIS

CITY           SKY/WX    TMP DP  RH WIND       PRES   REMARKS
LAWRENCEVILLE  CLEAR     46  34  62 SW14      29.82S
FLORA*         CLEAR     44  32  64 SW10      29.83S
FAIRFIELD*     CLEAR     46  34  63 SW8       29.83F
HARRISBURG*    CLEAR     45  35  68 SW5       29.89S
ROBINSON*      CLEAR     45  34  65 SW13      29.81S
CARMI*         CLEAR     46  32  58 SW8       29.85F
$$

ABBREVIATIONS USED IN REMARKS
   TC - TEMPERATURE IN CELSIUS
  WCI - WIND CHILL INDEX
   HX - HEAT INDEX
  VSB - VISIBILITY
$$



USA.gov is the U.S. government's official web portal to all federal, state and local government web resources and services.